FW6240 Weather Reports


time (UTC)temp
C
wind
direction
speed
KPH
gust
KPH
rain 1hr
cm
rain 24hr
cm
rain mn
cm
humidity
%
barometer
mb
20260506110043 17 215 20.9 48.3 0.00 0.00 0.00 71 1013.4
20260506104538 17 255 19.3 43.5 0.00 0.00 0.00 71 1013.4
20260506103036 17 186 14.5 48.3 0.00 0.00 0.00 72 1013.1
20260506101535 16 233 16.1 37.0 0.00 0.00 0.00 73 1013.3
20260506100031 16 232 9.7 24.1 0.00 0.00 0.00 74 1013.2
20260506094529 15 248 12.9 33.8 0.00 0.00 0.00 75 1013.0
20260506093032 15 244 11.3 27.4 0.00 0.00 0.00 74 1012.8
20260506091522 15 201 12.9 29.0 0.00 0.00 0.00 73 1012.7
20260506090021 15 254 16.1 35.4 0.00 0.00 0.00 73 1012.5
20260506084519 15 221 12.9 40.2 0.00 0.00 0.00 72 1012.4
20260506083027 15 232 11.3 27.4 0.00 0.00 0.00 72 1011.7
20260506081517 15 230 16.1 40.2 0.00 0.00 0.00 71 1011.6
20260506080119 15 238 9.7 25.7 0.00 0.00 0.00 70 1011.5
20260506073011 15 265 8.0 38.6 0.00 0.00 0.00 70 1011.6
20260506071507 15 223 12.9 27.4 0.00 0.00 0.00 72 1011.4
20260506061502 15 221 11.3 35.4 0.00 0.00 0.00 70 1011.5
20260506044555 15 256 12.9 32.2 0.00 0.00 0.00 67 1011.5
20260506043053 15 236 14.5 29.0 0.00 0.00 0.00 68 1011.9
20260506041548 15 250 11.3 32.2 0.00 0.00 0.00 67 1011.7
20260506040046 16 306 17.7 35.4 0.00 0.00 0.00 67 1011.4
20260506034604 16 224 14.5 37.0 0.00 0.00 0.00 67 1011.4
20260506033041 16 219 11.3 35.4 0.00 0.00 0.00 66 1011.3
20260506031548 16 175 14.5 37.0 0.00 0.00 0.00 65 1011.1
20260506030036 16 284 19.3 41.8 0.00 0.00 0.00 65 1010.9
20260506024536 16 211 12.9 37.0 0.00 0.00 0.00 64 1011.0
20260506023036 16 206 11.3 33.8 0.00 0.00 0.00 62 1011.0
20260506021534 17 46 14.5 48.3 0.00 0.00 0.00 61 1011.1
20260506020035 17 234 24.1 41.8 0.00 0.00 0.00 61 1010.9
20260506014534 17 222 17.7 45.1 0.00 0.00 0.00 61 1011.0
20260506013034 17 231 19.3 43.5 0.00 0.00 0.00 60 1010.8
20260506011532 17 221 17.7 40.2 0.00 0.00 0.00 58 1010.9
20260506010048 17 202 11.3 41.8 0.00 0.00 0.00 56 1010.6
20260506004527 17 175 19.3 38.6 0.00 0.00 0.00 55 1010.4
20260506003025 17 233 19.3 49.9 0.00 0.00 0.00 54 1010.2
20260506001529 17 270 16.1 40.2 0.00 0.00 0.00 52 1009.9
20260506000125 17 224 14.5 46.7 0.00 0.00 0.00 51 1009.8
20260505234524 17 209 16.1 35.4 0.00 0.00 0.00 48 1009.8
20260505233023 17 236 11.3 48.3 0.00 0.00 0.00 47 1009.5
20260505231522 18 221 11.3 38.6 0.00 0.00 0.00 47 1009.5
20260505230031 18 201 8.0 35.4 0.00 0.00 0.00 46 1009.2
20260505224522 18 252 9.7 33.8 0.00 0.00 0.00 46 1009.5
20260505223019 19 229 11.3 29.0 0.00 0.00 0.00 44 1009.6
20260505221519 20 236 9.7 20.9 0.00 0.00 0.00 44 1009.7
20260505220025 21 225 9.7 22.5 0.00 0.00 0.00 42 1009.8
20260505214518 21 237 8.0 35.4 0.00 0.00 0.00 43 1009.5
20260505213023 22 230 12.9 29.0 0.00 0.00 0.00 42 1009.4
20260505210017 23 327 16.1 38.6 0.00 0.00 0.00 40 1009.3
20260505204513 23 254 9.7 25.7 0.00 0.00 0.00 40 1009.0
20260505203023 24 242 9.7 29.0 0.00 0.00 0.00 37 1009.0
20260505201512 24 254 9.7 35.4 0.00 0.00 0.00 41 1009.0
20260505200010 24 261 11.3 30.6 0.00 0.00 0.00 39 1009.1
20260505194508 24 218 9.7 20.9 0.00 0.00 0.00 38 1009.2
20260505193006 24 275 8.0 25.7 0.00 0.00 0.00 38 1009.1
20260505191506 23 222 12.9 29.0 0.00 0.00 0.00 39 1009.1
20260505190004 23 248 12.9 30.6 0.00 0.00 0.00 42 1009.1
20260505184503 23 157 12.9 40.2 0.00 0.00 0.00 41 1009.1
20260505183001 24 219 11.3 29.0 0.00 0.00 0.00 40 1009.1
20260505181559 23 224 8.0 32.2 0.00 0.00 0.00 40 1009.1
20260505180056 23 256 9.7 37.0 0.00 0.00 0.00 41 1009.1
20260505174555 23 193 8.0 29.0 0.00 0.00 0.00 41 1009.1
20260505173054 23 203 9.7 27.4 0.00 0.00 0.00 43 1009.4
20260505171558 23 238 9.7 25.7 0.00 0.00 0.00 45 1009.5
20260505170148 23 215 12.9 20.9 0.00 0.00 0.00 43 1009.5
20260505164546 22 265 6.4 29.0 0.00 0.23 0.00 48 1009.4
20260505163044 22 243 4.8 14.5 0.00 0.23 0.00 48 1009.4
20260505161541 21 259 3.2 16.1 0.00 0.23 0.00 50 1009.6
20260505153029 19 248 6.4 17.7 0.00 0.71 0.00 53 1009.4
20260505151532 18 180 3.2 22.5 0.00 0.71 0.00 56 1009.8
20260505140114 17 211 1.6 16.1 0.00 1.02 0.00 52 1010.2
20260505124558 13 170 3.2 19.3 0.00 1.32 0.00 60 1010.0
20260505123055 13 206 12.9 24.1 0.00 1.32 0.00 63 1009.8
20260505121551 13 178 4.8 19.3 0.00 1.32 0.00 62 1009.7
20260505120105 12 189 14.5 29.0 0.00 1.32 0.00 63 1009.3
20260505114543 12 207 11.3 29.0 0.00 1.37 0.00 64 1009.0
20260505113044 11 177 9.7 22.5 0.00 1.37 0.00 67 1009.0
20260505111534 11 237 9.7 19.3 0.00 1.37 0.00 70 1008.9